Fremont, MI

3:02 AM EDT on September 15, 2019 (GMT -0400)
Fremont

Weather History for KFFX - June, 2019

Change the Weather History Date:

Friday, June 14, 2019

  Actual Average (KMKG) Record (KMKG)
Temperature  
Mean Temperature 54 °F -  
Max Temperature 68 °F 78 °F 90 °F (2017)
Min Temperature 41 °F 56 °F 39 °F (1958)
Degree Days  
Heating Degree Days 10    
Growing Degree Days 4 (Base 50)    
Moisture  
Dew Point 45 °F    
Average Humidity 73    
Maximum Humidity 99    
Minimum Humidity 38    
Precipitation  
Precipitation 0.00 in - - ()
Sea Level Pressure  
Sea Level Pressure 29.92 in    
Wind  
Wind Speed 4 mph ()    
Max Wind Speed 22 mph    
Max Gust Speed 28 mph    
Visibility 10.0 miles    
Events Rain    
Averages and records for this station are not official NWS values.
T = Trace of Precipitation, MM = Missing Value Source: Averaged Metar Reports

Daily Weather History Graph

Daily Weather History Graph

Search for Another Location

Airport or City:

Astronomy

Jun. 14, 2019 Rise Set
Actual Time 6:02 AM EDT 9:26 PM EDT
Civil Twilight 5:26 AM EDT 10:01 PM EDT
Nautical Twilight 4:40 AM EDT 10:48 PM EDT
Astronomical Twilight 3:42 AM EDT 11:46 PM EDT
Moon 6:42 PM EDT (6/14) 4:26 AM EDT (6/14)
Length of Visible Light 16h 34m
Length of Day
15h 23m
Waxing Gibbous, 92% of the Moon is Illuminated
Jun 14
Waxing Gibbous
Jun 17
Full
Jun 25
Last Quarter
Jul 2
New
Jul 9
First Quarter

Hourly Weather History & Observations

Time (EDT) Temp. Dew Point Humidity Pressure Visibility Wind Dir Wind Speed Gust Speed Precip Events Conditions
12:15 AM 47.3 °F 39.6 °F 74% 29.95 in 10.0 mi West 5.8 mph - N/A   Clear
12:35 AM 47.3 °F 39.4 °F 74% 29.95 in 10.0 mi Calm Calm - N/A   Clear
12:58 AM 46.4 °F 39.4 °F 77% 29.95 in 10.0 mi Calm Calm - N/A   Clear
1:16 AM 45.7 °F 39.6 °F 79% 29.95 in 10.0 mi Calm Calm - N/A   Clear
1:35 AM 44.4 °F 39.7 °F 84% 29.95 in 10.0 mi Calm Calm - N/A   Clear
1:55 AM 44.2 °F 39.6 °F 84% 29.95 in 10.0 mi Calm Calm - N/A   Clear
2:19 AM 42.8 °F 40.5 °F 91% 29.95 in 10.0 mi Calm Calm - N/A   Clear
2:36 AM 42.8 °F 41.0 °F 93% 29.95 in 10.0 mi Calm Calm - N/A   Clear
2:55 AM 41.9 °F 40.6 °F 95% 29.95 in 10.0 mi Calm Calm - N/A   Clear
2:56 AM 41.9 °F 40.6 °F 95% 29.95 in 10.0 mi Calm Calm - N/A   Clear
3:15 AM 41.9 °F 41.0 °F 97% 29.95 in 10.0 mi Calm Calm - N/A   Clear
3:16 AM 42.1 °F 41.2 °F 97% 29.95 in 10.0 mi Calm Calm - N/A   Clear
3:35 AM 42.4 °F 41.7 °F 97% 29.95 in 10.0 mi Calm Calm - N/A   Clear
3:40 AM 42.4 °F 41.4 °F 96% 29.95 in 10.0 mi Calm Calm - N/A   Clear
3:57 AM 41.9 °F 41.0 °F 97% 29.95 in 10.0 mi Calm Calm - N/A   Clear
4:16 AM 41.0 °F 40.1 °F 97% 29.95 in 10.0 mi Calm Calm - N/A   Clear
4:35 AM 41.7 °F 41.0 °F 97% 29.96 in 10.0 mi Calm Calm - N/A   Clear
4:36 AM 41.7 °F 41.0 °F 97% 29.96 in 10.0 mi Calm Calm - N/A   Clear
4:55 AM 42.1 °F 41.5 °F 98% 29.96 in 10.0 mi Calm Calm - N/A   Clear
4:56 AM 42.1 °F 41.5 °F 98% 29.96 in 10.0 mi Calm Calm - N/A   Clear
5:19 AM 41.0 °F 40.5 °F 98% 29.96 in 10.0 mi Calm Calm - N/A   Clear
5:37 AM 41.2 °F 40.8 °F 99% 29.96 in 10.0 mi Calm Calm - N/A   Clear
5:55 AM 41.9 °F 41.4 °F 98% 29.97 in 10.0 mi Calm Calm - N/A   Clear
5:56 AM 41.7 °F 41.4 °F 99% 29.97 in 10.0 mi Calm Calm - N/A   Clear
6:15 AM 41.2 °F 40.8 °F 99% 29.98 in 10.0 mi Calm Calm - N/A   Clear
6:35 AM 42.1 °F 41.7 °F 99% 29.98 in 10.0 mi Calm Calm - N/A   Clear
6:58 AM 43.7 °F 43.3 °F 99% 29.99 in 10.0 mi Calm Calm - N/A   Clear
7:16 AM 46.6 °F 45.0 °F 94% 29.99 in 10.0 mi Calm Calm - N/A   Clear
7:35 AM 47.5 °F 45.9 °F 94% 30.00 in 10.0 mi Calm Calm - N/A   Clear
7:36 AM 47.7 °F 45.9 °F 93% 30.00 in 10.0 mi Calm Calm - N/A   Clear
7:55 AM 49.8 °F 45.5 °F 85% 30.00 in 10.0 mi Calm Calm - N/A   Clear
7:56 AM 50.0 °F 45.5 °F 85% 30.00 in 10.0 mi Calm Calm - N/A   Clear
8:19 AM 52.3 °F 46.0 °F 79% 30.00 in 10.0 mi Calm Calm - N/A   Clear
8:37 AM 54.9 °F 46.0 °F 72% 30.00 in 10.0 mi SSW 3.5 mph - N/A   Clear
8:55 AM 56.3 °F 45.5 °F 67% 30.00 in 10.0 mi SSW 4.6 mph - N/A   Clear
9:15 AM 58.3 °F 44.8 °F 61% 30.00 in 10.0 mi WSW 6.9 mph - N/A   Clear
9:35 AM 58.6 °F 45.1 °F 61% 30.00 in 10.0 mi WSW 8.1 mph - N/A   Clear
9:40 AM 59.0 °F 45.3 °F 60% 30.00 in 10.0 mi WSW 8.1 mph - N/A   Clear
9:58 AM 60.4 °F 45.0 °F 57% 30.00 in 10.0 mi SW 9.2 mph - N/A   Clear
10:16 AM 60.8 °F 44.8 °F 56% 30.00 in 10.0 mi SW 8.1 mph - N/A   Clear
10:35 AM 61.2 °F 44.4 °F 54% 29.99 in 10.0 mi SSW 6.9 mph - N/A   Clear
10:55 AM 61.3 °F 43.5 °F 52% 29.99 in 10.0 mi SSW 9.2 mph - N/A   Clear
11:19 AM 61.9 °F 42.3 °F 49% 29.99 in 10.0 mi SSW 8.1 mph - N/A   Scattered Clouds
11:37 AM 62.6 °F 40.6 °F 45% 29.98 in 10.0 mi SSW 13.8 mph - N/A   Scattered Clouds
11:55 AM 62.4 °F 42.1 °F 47% 29.98 in 10.0 mi SSW 9.2 mph - N/A   Scattered Clouds
11:56 AM 62.6 °F 42.4 °F 48% 29.98 in 10.0 mi SSW 9.2 mph - N/A   Scattered Clouds
12:15 PM 63.9 °F 43.2 °F 47% 29.98 in 10.0 mi SSW 11.5 mph - N/A   Scattered Clouds
12:35 PM 64.9 °F 42.8 °F 45% 29.97 in 10.0 mi SSW 11.5 mph - N/A   Mostly Cloudy
12:58 PM 63.9 °F 42.1 °F 45% 29.97 in 10.0 mi SW 12.7 mph 19.6 mph N/A   Overcast
1:16 PM 64.8 °F 43.3 °F 46% 29.96 in 10.0 mi SW 13.8 mph 19.6 mph N/A Rain Light Rain
1:35 PM 64.2 °F 44.6 °F 49% 29.95 in 10.0 mi SSW 12.7 mph 17.3 mph N/A   Light Drizzle
1:36 PM 64.2 °F 44.1 °F 48% 29.95 in 10.0 mi SSW 13.8 mph 17.3 mph N/A   Light Drizzle
1:55 PM 63.0 °F 44.2 °F 50% 29.95 in 10.0 mi SW 10.4 mph 20.7 mph N/A Rain Rain
2:19 PM 58.3 °F 48.4 °F 70% 29.95 in 7.0 mi WSW 8.1 mph - N/A Rain Light Rain
2:37 PM 57.6 °F 49.3 °F 74% 29.95 in 10.0 mi Calm Calm - N/A Rain Light Rain
2:55 PM 57.2 °F 51.6 °F 82% 29.93 in 10.0 mi Calm Calm - N/A Rain Light Rain
2:56 PM 57.2 °F 51.6 °F 82% 29.93 in 10.0 mi Calm Calm - N/A Rain Rain
3:15 PM 56.3 °F 52.7 °F 88% 29.92 in 10.0 mi NNE 3.5 mph - N/A   Overcast
3:16 PM 56.3 °F 52.3 °F 87% 29.92 in 10.0 mi NNE 3.5 mph - N/A   Overcast
3:35 PM 56.7 °F 53.4 °F 89% 29.91 in 10.0 mi East 3.5 mph - N/A Rain Rain
3:40 PM 56.8 °F 54.1 °F 91% 29.91 in 10.0 mi East 5.8 mph - N/A Rain Light Rain
3:57 PM 56.8 °F 54.1 °F 91% 29.89 in 10.0 mi ESE 6.9 mph - N/A Rain Light Rain
4:16 PM 58.1 °F 54.0 °F 86% 29.88 in 10.0 mi SE 6.9 mph - N/A   Overcast
4:35 PM 59.9 °F 52.7 °F 77% 29.87 in 10.0 mi SE 4.6 mph - N/A   Overcast
4:55 PM 62.1 °F 50.9 °F 67% 29.86 in 10.0 mi SSW 6.9 mph - N/A   Overcast
4:56 PM 62.2 °F 51.1 °F 67% 29.86 in 10.0 mi SSW 6.9 mph - N/A   Overcast
5:19 PM 66.2 °F 46.2 °F 49% 29.84 in 10.0 mi SSW 12.7 mph 20.7 mph N/A   Mostly Cloudy
5:37 PM 68.9 °F 45.7 °F 43% 29.83 in 10.0 mi SSW 18.4 mph 24.2 mph N/A   Mostly Cloudy
5:55 PM 68.4 °F 43.2 °F 40% 29.83 in 10.0 mi SSW 21.9 mph 27.6 mph N/A   Mostly Cloudy
6:15 PM 68.4 °F 42.3 °F 39% 29.83 in 10.0 mi SSW 17.3 mph 25.3 mph N/A   Overcast
6:16 PM 68.4 °F 42.3 °F 39% 29.83 in 10.0 mi SSW 16.1 mph 25.3 mph N/A   Overcast
6:35 PM 68.2 °F 41.7 °F 38% 29.82 in 10.0 mi SSW 16.1 mph 26.5 mph N/A Rain Light Rain
6:40 PM 68.4 °F 41.9 °F 38% 29.83 in 10.0 mi SW 12.7 mph 26.5 mph N/A Rain Light Rain
6:58 PM 68.4 °F 42.8 °F 40% 29.83 in 10.0 mi SSW 15.0 mph 21.9 mph N/A   Mostly Cloudy
7:16 PM 67.3 °F 44.2 °F 43% 29.83 in 10.0 mi SSW 13.8 mph - N/A   Mostly Cloudy
7:35 PM 67.1 °F 44.6 °F 44% 29.82 in 10.0 mi SSW 11.5 mph 16.1 mph N/A   Overcast
7:55 PM 67.1 °F 45.1 °F 45% 29.82 in 10.0 mi SSW 10.4 mph - N/A   Mostly Cloudy
8:19 PM 66.4 °F 46.6 °F 49% 29.81 in 10.0 mi SSW 9.2 mph - N/A Rain Light Rain
8:37 PM 67.1 °F 46.2 °F 47% 29.82 in 10.0 mi SSW 9.2 mph - N/A   Overcast
8:55 PM 64.8 °F 49.5 °F 58% 29.82 in 10.0 mi SSW 4.6 mph - N/A Rain Light Rain
8:56 PM 64.4 °F 49.6 °F 59% 29.82 in 10.0 mi SSW 4.6 mph - N/A Rain Light Rain
9:15 PM 62.4 °F 52.0 °F 69% 29.82 in 10.0 mi Calm Calm - N/A Rain Rain
9:16 PM 62.1 °F 52.2 °F 70% 29.82 in 10.0 mi Calm Calm - N/A Rain Rain
9:35 PM 59.4 °F 55.8 °F 88% 29.81 in 10.0 mi Calm Calm - N/A Rain Light Rain
9:58 PM 58.5 °F 56.7 °F 94% 29.81 in 10.0 mi Calm Calm - N/A Rain Light Rain
10:16 PM 58.6 °F 57.2 °F 95% 29.81 in 10.0 mi Calm Calm - N/A Rain Light Rain
10:35 PM 58.6 °F 57.2 °F 95% 29.81 in 10.0 mi SSE 5.8 mph - N/A   Overcast
10:36 PM 58.6 °F 57.0 °F 94% 29.81 in 10.0 mi SSE 5.8 mph - N/A   Overcast